Location: Ladrillo (historical)
(32.8195°N, 117.2231°W)
Time: 00:01:53
(UTC+00:00)

Altair - Pass Details

Date: 05 March 2021
Orbit: 1501 x 1683 km, 47.2° (Epoch: 16 April)

Event Time Altitude Azimuth Distance (km) Brightness Sun altitude
Rises 02:15:07 0° 247° (WSW) 4,624 11.6 -6.3°
Reaches altitude 10° 02:18:12 10° 251° (WSW) 3,646 11.0 -7.0°
Maximum altitude 02:27:13 60° 330° (NNW) 1,704 7.9 -8.9°
Drops below altitude 10° 02:36:28 10° 49° (NE) 3,734 9.1 -10.8°
Enters shadow 02:38:37 - 53° (NE) 4,411 9.4 -11.3°
